Flag for Kazakhstan Weather past 2 weeks in Aqtobe, Kazakhstan

Now
55 °F

Clear.


Feels Like: 55 °F
Forecast: 55 / 75 °F
Wind: 1 mph from North

Location: Aktjubinsk

Current Time: Jul 26, 2014 at 2:21:04 AM

Latest Report: Jul 26, 2014 at 2:00 AM


Visibility: 10 mi

Pressure: 29.77 "Hg

Humidity: 82%

Dew point: 50 °F

Location of AqtobeLocation

Historic Weather in Aqtobe — Graph

°F

Aqtobe temperature yesterday

Maximum temperature yesterday: 82 °F (at 3:30 PM)
Minimum temperature yesterday: 50 °F (at 4:30 AM)
Average temperature yesterday: 69 °F

Past Weeks' High & Low Weather Summary

 TemperatureHumidityPressure
High90 °F (Jul 17, 1:30 PM)94% (Jul 24, 5:00 AM)30.07 "Hg (Jul 24, 5:00 AM)
Low45 °F (Jul 13, 5:00 AM)19% (Jul 13, 3:00 PM)29.59 "Hg (Jul 19, 10:30 PM)
Average66 °F51%29.80 "Hg
* Reported Jul 11 1:00 AM — Jul 26 1:00 AM, Aqtobe, Weather by CustomWeather, © 2014

Note: Actual official high and low records may vary slightly from our data, if they occured in-between our weather recording intervals... More about our weather records

Advertising

Aqtobe weather history for previous 24 hours

 ConditionsComfort  
Time TempWeatherWind HumidityBarometerVisibility
1:00 AM
Jul 26
61 °FClear.3 mph68%29.77 "Hg10 mi
12:30 AM63 °FClear.3 mph64%29.77 "Hg10 mi
12:00 AM64 °FClear.6 mph60%29.77 "Hg10 mi
11:30 PM
Jul 25
66 °FClear.6 mph56%29.74 "Hg10 mi
11:00 PM68 °FClear.6 mph49%29.74 "Hg10 mi
10:30 PM70 °FPassing clouds.6 mph46%29.74 "HgN/A
10:00 PM70 °FPassing clouds.8 mph46%29.74 "HgN/A
9:30 PM72 °FClear.8 mph41%29.74 "Hg10 mi
9:00 PM72 °FSunny.13 mph41%29.74 "Hg10 mi
8:30 PM72 °FSunny.13 mph44%29.74 "Hg10 mi
8:00 PM73 °FSunny.15 mph41%29.71 "Hg10 mi
7:30 PM77 °FSunny.6 mph32%29.71 "Hg10 mi
7:00 PM79 °FSunny.8 mph28%29.71 "Hg10 mi
6:30 PM79 °FSunny.8 mph28%29.71 "Hg10 mi
6:00 PM81 °FSunny.8 mph26%29.71 "Hg10 mi
5:30 PM81 °FSunny.8 mph24%29.71 "Hg10 mi
5:00 PM81 °FPassing clouds.6 mph24%29.71 "HgN/A
4:30 PM82 °FPassing clouds.8 mph23%29.71 "HgN/A
4:00 PM81 °FSunny.13 mph24%29.74 "Hg10 mi
3:30 PM82 °FPassing clouds.15 mph23%29.74 "HgN/A
3:00 PM81 °FPassing clouds.13 mph23%29.74 "HgN/A
2:30 PM81 °FSunny.15 mph21%29.74 "Hg10 mi
2:00 PM81 °FSunny.13 mph21%29.74 "Hg10 mi
1:30 PM81 °FSunny.15 mph23%29.77 "Hg10 mi
1:00 PM79 °FSunny.17 mph23%29.77 "Hg10 mi
12:30 PM79 °FSunny.17 mph24%29.77 "Hg10 mi
12:00 PM79 °FSunny.13 mph24%29.77 "Hg10 mi
11:30 AM79 °FSunny.17 mph26%29.77 "Hg10 mi
11:00 AM79 °FClear.17 mph24%29.77 "HgN/A
10:30 AM77 °FClear.8 mph28%29.77 "HgN/A
10:00 AM75 °FClear.6 mph36%29.80 "Hg6 mi
9:30 AM73 °FClear.3 mph41%29.80 "HgN/A
9:00 AM70 °FClear.3 mph46%29.80 "HgN/A
8:30 AM66 °FClear.1 mph60%29.80 "Hg4 mi
8:00 AM64 °FClear.No wind68%29.80 "Hg4 mi
7:30 AM59 °FSunny.No wind82%29.80 "Hg10 mi
7:00 AM55 °FSunny.No wind88%29.80 "Hg10 mi
6:30 AM52 °FSunny.3 mph94%29.80 "Hg10 mi
6:00 AM52 °FSunny.3 mph88%29.80 "Hg10 mi
5:30 AM52 °FSunny.3 mph88%29.80 "Hg10 mi
5:00 AM50 °FClear.1 mph94%29.80 "Hg10 mi
4:30 AM50 °FClear.1 mph94%29.80 "HgN/A
4:00 AM52 °FClear.3 mph88%29.80 "Hg4 mi
3:30 AM54 °FClear.1 mph94%29.80 "Hg4 mi
3:00 AM54 °FClear.1 mph94%29.80 "Hg4 mi
2:30 AM59 °FClear.No wind82%29.80 "Hg4 mi
2:00 AM59 °FClear.No wind82%29.80 "HgN/A
Weather by CustomWeather, © 2014

See weather overviewHow to use our weather pages